ONEWEB-0281 (48999 NORAD) Tracking and Keplerian Element Data

This shows tracking and keplerian element data for the satellite.

Feedback or suggestion? Click here.




ElementValue
Catalog48999
NameONEWEB-0281
Epoch Orbit1392
Epoch Day269.25001157
Epoch Year2021
RAAN211.8713
Inclination87.881
Eccentricity0.0009657
Argument of Perigee358.2264
Mean Anonmoly232.6924
Mean Motion13.51219858
Decay Rate1.4E-07
L11 48999U 21060AJ 21269.25001157 .00000014 00000-0 00000+0 0 9993
L22 48999 87.8810 211.8713 0009657 358.2264 232.6924 13.51219858 13929

Live tracking and technical data element details for ONEWEB-0281 (NORAD 48999). ONEWEB-0281 can be tracked NOW for your location showing map with azimuth and elevation plus other details from your city location.

Track the satellite on the map from your city or location and see movement details for azimuth, elevation, latitude, longitude, range, height, and movement on the map or in text.







IsCatalogInMostPopularTable: catalog: 48999, numindb: 20
Update: records affected: 1



GetName: 48999 ONEWEB-0281

Hit Count: updated at: Sun, 26 Sep 2021 16:28:17 GMT